Погода в Преображенке

Россия / Кемеровская область (Кузбасс)     56°02′15″N   88°34′03″E
темп.,
°C
ветер,
м/с
пор.,
м/с
влажн.,
%
обл.,
%
осадки,
мм/ч
давл.,
гПа
погр.,
м
20 января, ср
ср2001:00−22з61195100 0.3 1022714
04:00−25з51097100 0.1 1025323
07:00−29з34100100 0.1 102951
10:00−30зюз229999 0.0 103119
13:00−27зюз119475 0.0 1033123
16:00−28ююв01950 0.0 103219
19:00−30юв12950 0.0 103419
22:00−30вюв22922 0.0 103319
21 января, чт
чт2101:00−29в339227 0.0 103234
04:00−27в479254 0.0 1028126
07:00−24в489177 0.0 1026191
10:00−22вюв4793100 0.0 1023190
13:00−17вюв3497100 0.4 1020145
16:00−15юв1196100 0.4 101869
19:00−15зюз1297100 0.6 101820
22:00−14зюз2496100 0.1 1017105
22 января, пт
пт2201:00−16зюз1197100 0.1 101620
04:00−15ю1297100 0.1 101420
07:00−15ююз1196100 0.1 101320
10:00−15ю1296100 0.0 101220
13:00−12з1293100 0.2 1010213
16:00−13ссз2295100 0.1 1009151
19:00−14ссз2497100 0.6 1010155
22:00−16сз3596100 0.8 1011247
23 января, сб
сб2301:00−19зсз3697100 1.1 1014230
04:00−24зсз3498100 0.0 101975
07:00−26з3498100 0.0 102370
10:00−22зюз41297100 0.1 1026446
13:00−18зюз61188100 0.2 1027738
16:00−19зюз51093100 0.2 1028769
19:00−19зюз51197100 0.6 1030712
22:00−20зюз41196100 0.3 1031615
24 января, вс
вс2401:00−21зюз31095100 0.3 1031323
04:00−22зюз2397100 0.1 103272
07:00−22юз2299100 0.2 103232
10:00−21ю1299100 0.2 103223
13:00−18зсз1293100 0.4 1032303
16:00−19зсз2497100 0.3 1032378
19:00−21зсз3799100 0.6 1035314
22:00−25з3899100 0.2 1037286